Location: La Romiguière
(44.6589°N, 2.0910°E)
Time: 11:05:01
(UTC+00:00)

Daily predictions for brighter satellites

Satellite Brightness Start Highest point End
(mag) Time Altitude Azimuth Time Altitude Azimuth Time Altitude Azimuth
SL-16 R/B 2.7 18:52:41 10° SW 18:58:19 69° WNW 19:04:00 10° NNE
Terra 3.4 18:56:51 10° ESE 19:00:01 18° ENE 19:03:12 10° NNE
Atlas Centaur 2 4.2 18:57:07 10° SW 19:00:30 16° S 19:04:17 10° SSE
Meteor 1-22 Rocket 4.2 18:57:34 10° S 19:03:06 70° E 19:08:55 10° NNE
Cosmos 1898 Rocket 3.8 18:58:46 10° S 19:03:43 45° ESE 19:08:40 10° NNE
CZ-4 R/B 2.3 19:01:26 10° SE 19:04:41 27° ENE 19:07:55 10° N
PSLV R/B 4.1 19:01:29 10° S 19:05:28 58° W 19:09:31 10° NNW
Resurs 01 Rocket 2.4 19:02:13 10° S 19:06:30 55° W 19:10:50 10° NNW
Okean O Rocket 3.7 19:08:03 10° ENE 19:09:17 11° ENE 19:10:33 10° NE
Cosmos 2333 4.1 19:07:34 10° SSW 19:13:06 68° ESE 19:18:40 10° NNE
Cosmos 372 Rocket 3.9 19:09:20 10° SSW 19:14:30 75° ESE 19:19:45 10° NNE
Tiangong -0.1 19:12:20 10° WSW 19:14:41 19° SSW 19:17:02 10° SSE
Meteor 1-24 Rocket 3.7 19:09:31 10° N 19:14:58 69° ENE 19:20:34 10° SSE
Cosmos 1538 Rocket 4.0 19:10:01 10° NNW 19:15:10 71° ENE 19:20:18 10° SSE
CENTAUR R/B 4.1 19:08:59 10° NW 19:17:18 56° WSW 19:26:28 10° SSE
Cosmos 1844 4.5 19:11:41 10° NNW 19:17:20 56° WSW 19:22:57 10° S
Cosmos 2219 Rocket 2.2 19:13:32 10° S 19:18:58 57° ESE 19:24:26 10° NNE
SPOT 5 2.8 19:15:12 10° SSE 19:19:57 66° ENE 19:24:30 10° N
CZ-4B R/B 3.8 19:18:51 10° SSE 19:22:19 52° ENE 19:25:55 10° N
Cosmos 2074 Rocket 4.0 19:16:09 10° S 19:22:20 75° E 19:28:35 10° NNE
Meteor 1-31 Rocket 2.7 19:21:32 10° SSE 19:24:58 53° ENE 19:28:25 10° N
Cosmos 1937 Rocket 3.7 19:20:08 10° S 19:25:14 51° ESE 19:30:22 10° NNE
Cosmos 923 Rocket 4.4 19:29:33 10° N 19:34:41 47° ENE 19:38:50 15° SE
USA 234 3.6 19:29:40 10° NE 19:36:11 71° NNW 19:42:42 10° WSW
COSMOS 2428 3.6 19:31:49 10° SSE 19:36:28 26° ESE 19:41:08 10° NE
IRAS Rocket 4.2 19:32:45 10° SSE 19:38:17 89° WSW 19:43:48 10° NNW
Cosmos 1953 3.0 19:35:21 10° SSW 19:38:50 51° W 19:42:22 10° N
Meteor 1-15 Rocket 4.3 19:33:24 10° S 19:38:58 85° W 19:44:35 10° N
PAYLOAD B 4.4 19:33:58 10° SSE 19:39:19 56° ENE 19:44:41 10° N
CZ-4B R/B 3.6 19:35:07 12° SE 19:39:52 46° ENE 19:45:12 10° N
CZ-4B DEB 4.2 19:35:03 10° SSE 19:40:25 65° ENE 19:45:51 10° N
CSL-04 Rocket 3.8 19:35:12 10° SSE 19:40:43 86° WSW 19:46:19 10° NNW
Cosmos 2278 Rocket 3.7 19:40:29 10° N 19:44:47 21° NE 19:47:49 14° E
Cosmos 1610 Rocket 4.5 19:41:05 10° S 19:47:21 71° E 19:53:35 10° NNE
Cosmos 2333 Rocket 3.9 19:42:35 10° WSW 19:47:47 36° NW 19:53:01 10° NNE
NOSS 3-2 (C) 4.2 19:42:36 10° NNW 19:49:52 65° NE 19:56:23 19° SE
Cosmos 1703 Rocket 3.4 19:50:47 10° N 19:55:07 78° E 19:58:41 15° SSE
Geosat 3.9 19:51:06 10° NNE 19:56:08 85° ESE 20:01:08 10° SSW
BREEZE-M DEB (TANK) 3.1 19:53:47 10° WNW 19:56:08 36° N 19:59:32 13° ENE
Cosmos 1470 Rocket 4.0 19:51:56 10° SSW 19:56:18 63° W 20:00:38 10° N
Spot 2 Rocket 4.3 19:53:55 22° ESE 19:56:18 34° ENE 20:00:48 10° N
Lacrosse 5 rocket 0.5 19:54:44 10° SW 19:57:56 74° SE 20:00:40 13° NE
NOSS 3-2 (A) 4.5 19:50:49 10° NW 19:58:16 66° WSW 20:06:45 11° SSE
ARIANE 6 FM1 Upper Stage 3.8 19:55:15 10° WSW 19:59:14 46° NW 20:03:09 10° NNE
Meteor 2-5 Rocket 4.3 19:54:36 10° NNW 20:00:01 57° W 20:05:26 10° S
ERS-1 Rocket 2.9 19:57:46 16° SSE 20:01:49 76° ENE 20:06:50 10° N
Cosmos 1933 Rocket 3.4 19:59:24 10° S 20:03:42 68° E 20:08:05 10° NNE
Nadezhda 3 Rocket 4.3 19:59:17 10° NNW 20:05:26 69° W 20:11:30 10° S
Cosmos 2218 Rocket 4.3 20:06:05 19° SSE 20:10:03 44° E 20:15:49 10° NNE
Cosmos 1943 Rocket 3.0 20:05:30 10° NNW 20:10:43 36° NE 20:12:58 26° E
Helios 1A Rocket 3.7 20:09:23 10° N 20:12:26 39° WNW 20:15:27 10° SW
YAOGAN 11 4.4 20:09:02 10° NNE 20:13:03 41° E 20:13:56 36° SE
Meteor 1-12 Rocket 4.3 20:07:06 10° S 20:13:04 89° W 20:19:08 10° N
In-Cosmos 22 Rocket 4.1 20:11:05 10° N 20:16:24 65° ENE 20:19:03 29° SSE
Cosmos 1733 Rocket 4.3 20:18:20 25° ENE 20:18:20 25° ENE 20:21:15 10° NNE
OPS 6432 4.3 20:16:09 10° NW 20:19:30 74° SW 20:20:04 56° S
CZ-4B R/B 4.5 20:20:21 26° E 20:21:07 27° ENE 20:25:08 10° N
Okean-O 2.8 20:20:35 40° ESE 20:21:40 51° ENE 20:25:55 10° N
Cosmos 494 Rocket 3.9 20:19:18 10° NNW 20:24:28 72° ENE 20:26:29 37° SE
Cosmos 1821 Rocket 4.4 20:22:24 31° SE 20:24:33 41° E 20:30:23 10° NNE
Cosmos 962 Rocket 4.4 20:19:16 10° S 20:25:34 87° E 20:31:48 10° N
Cosmos 2360 Rocket 4.2 20:21:49 10° WSW 20:26:43 30° NW 20:31:39 10° N
Cosmos 1869 Rocket 3.5 20:30:47 21° SSW 20:33:40 81° W 20:38:06 10° N
ADEOS 3.9 20:32:47 22° S 20:36:09 63° WSW 20:41:21 10° NNW
Terra 2.3 20:34:16 22° S 20:37:06 56° W 20:41:44 10° NNW
CZ-4 R/B 3.5 20:35:38 10° SSW 20:38:41 22° W 20:41:42 10° NW
Aureole 3 4.3 20:36:15 10° N 20:40:03 40° ENE 20:40:03 40° ENE
BREEZE-M DEB (TANK) 4.3 20:38:36 10° WSW 20:42:37 86° NNW 20:59:36 10° ENE
Okean O Rocket 1.5 20:43:57 58° S 20:44:48 87° WSW 20:49:10 10° NNW
Cosmos 2242 Rocket 3.8 20:42:05 10° N 20:46:21 52° ENE 20:46:21 52° ENE
Cosmos 2237 Rocket 2.8 20:47:31 37° E 20:47:31 37° E 20:51:47 10° NE
Cosmos 1980 4.1 20:47:57 42° E 20:47:57 42° E 20:52:39 10° NE
SL-08 R/B 3.8 20:44:02 10° N 20:48:51 61° WNW 20:53:40 10° SSW
Cosmos 2322 3.9 20:44:45 10° SSW 20:50:27 74° WNW 20:56:13 10° NNE
CZ-4B R/B 3.6 20:51:35 37° NNE 20:51:35 37° NNE 20:54:03 10° N
ASTEX 1 3.4 20:50:47 58° E 20:51:03 59° E 20:55:53 10° N
Cosmos 2341 Rocket 4.1 20:46:43 13° SSW 20:52:21 78° W 20:58:40 10° N
Meteor 1-21 Rocket 4.2 20:53:44 10° NNW 20:59:20 77° W 21:01:08 45° S
Cosmos 1680 Rocket 4.4 20:55:45 10° NNW 21:00:40 44° WSW 21:02:37 30° SSW
SPOT 3 Rocket 3.5 21:02:11 64° E 21:02:34 67° ENE 21:07:44 10° N
Cosmos 2219 Rocket 4.4 20:58:40 10° WSW 21:03:15 25° NW 21:07:52 10° N
Meteor 2-21 Rocket 4.3 21:08:10 10° N 21:14:16 68° E 21:14:50 64° ESE
USA 245 4.0 21:17:16 54° NNW 21:17:16 54° NNW 21:20:52 10° NNW
Cosmos 2369 Rocket 4.0 21:16:31 10° N 21:20:18 18° NE 21:20:57 18° NE
COSMOS 2428 3.5 21:14:48 10° SW 21:20:21 51° WNW 21:25:57 10° NNE
Cosmos 1674 Rocket 4.5 21:17:03 10° N 21:19:58 40° NNE 21:19:58 40° NNE
NOSS 0 Rocket 4.0 21:17:00 10° SSW 21:23:14 75° WNW 21:29:30 10° NNE
Ariane Rocket 3.0 21:26:52 76° N 21:26:52 76° N 21:31:32 10° NNW
Cosmos 1727 Rocket 3.9 21:21:21 10° N 21:27:45 90° ESE 21:28:33 70° S
Cosmos 2278 Rocket 2.2 21:23:46 10° NNW 21:29:26 73° WSW 21:29:39 72° SW
USA 238 DEB 3.9 21:23:11 10° NW 21:30:39 78° NE 21:32:16 60° ESE
USA 238 3.9 21:23:21 10° NW 21:30:49 77° NE 21:32:26 59° ESE
Lacrosse 5 rocket 3.7 21:32:36 10° WNW 21:34:04 17° NW 21:34:04 17° NW
Meteor 2-8 Rocket 4.3 21:47:10 79° WSW 21:47:19 80° W 21:53:26 10° N
Cosmos 1656 Rocket 4.3 21:45:53 10° NNW 21:50:17 47° NNE 21:50:17 47° NNE
Cosmos 1943 Rocket 3.2 21:49:15 10° NW 21:54:26 37° WSW 21:54:29 37° WSW
SL-16 R/B 4.1 21:58:05 19° NE 21:58:05 19° NE 21:59:46 10° NE
SeaSat 1 3.3 21:59:30 45° N 21:59:30 45° N 22:03:02 10° NNW
Cosmos 1934 Rocket 4.1 22:03:44 72° NNE 22:03:44 72° NNE 22:09:19 10° N
Cosmos 2123 Rocket 4.0 21:58:02 10° N 22:03:50 77° NNW 22:03:50 77° NNW
USA 59 Rocket 2.4 22:02:02 10° NNW 22:02:48 16° NNW 22:02:48 16° NNW
NOSS 3-4 (A) 3.8 22:10:29 51° NW 22:10:44 51° NW 22:16:24 10° NNE
NOSS 3-4 (C) 3.8 22:11:01 52° NW 22:11:13 52° NW 22:16:56 10° NNE
Cosmos 2237 Rocket 3.6 22:29:12 31° W 22:30:36 35° NW 22:35:48 10° N
Cosmos 2369 Rocket 3.5 22:59:27 10° NNW 23:02:43 37° NNW 23:02:43 37° NNW
SJ 16-02 4.2 23:32:30 10° N 23:33:17 14° N 23:33:17 14° N
SL-16 R/B 3.7 23:39:53 32° NNW 23:39:53 32° NNW 23:43:50 10° N
ACS3 Solar Sail 4.0 23:38:31 10° NE 23:40:25 14° ENE 23:40:25 14° ENE
CZ-2C R/B 4.1 23:44:18 34° NNE 23:44:18 34° NNE 23:47:34 10° N
